Regional Weather Roundup
Issued by NWS

Home | Current Version | Previous Version | Text Only | Print | Product List | Glossary Off
Versions: 1 2 3 4 5 6 7 8 9 10 11 12 13 14 15 16 17 18 19 20 21 22 23 24 25 26 27 28 29 30 31 32 33 34 35 36 37 38 39 40 41 42 43 44 45 46 47 48 49 50

000
ASUS43 KOAX 050802
RWRNE

WEATHER ROUNDUP FOR NEBRASKA
NATIONAL WEATHER SERVICE OMAHA NE
300 AM CDT THU MAY 05 2016

NOTES: SATELLITE DATA IS BEING USED TO AUGMENT CLOUD COVER ABOVE
       12000 FEET.
       "FAIR" INDICATES FEW OR NO CLOUDS BELOW 12,000 FEET WITH NO
       SIGNIFICANT WEATHER AND/OR OBSTRUCTIONS TO VISIBILITY.

  * THESE STATIONS DO NOT REPORT WEATHER SUCH AS RAIN...SNOW OR FOG.

NEZ001>004-019>022-054>056-050900-
NEBRASKA PANHANDLE

CITY           SKY/WX    TMP DP  RH WIND       PRES   REMARKS
SCOTTSBLUFF    CLEAR     52  41  66 E13       30.08F
ALLIANCE       CLEAR     45  41  86 E5        30.07F
CHADRON        CLEAR     50  41  71 NE3       30.02F
KIMBALL        CLEAR     46  40  79 S8        30.13F
SIDNEY         CLEAR     48  40  73 SW10      30.12F
$$

NEZ057>060-069>072-079>082-050900-
SOUTHWEST NEBRASKA

CITY           SKY/WX    TMP DP  RH WIND       PRES   REMARKS
NORTH PLATTE   CLEAR     43  38  82 E3        30.09S
IMPERIAL       CLEAR     50  41  71 S5        30.10F
LEXINGTON      CLEAR     43  40  88 CALM      30.09F
MCCOOK         CLEAR     51  41  68 SW3       30.09S
$$

NEZ005>010-023>029-035>040-094-050900-
NORTH CENTRAL NEBRASKA

CITY           SKY/WX    TMP DP  RH WIND       PRES   REMARKS
VALENTINE      CLEAR     50  37  61 SW5       30.07S
AINSWORTH      CLEAR     45  37  75 S7        30.07F
BROKEN BOW     CLEAR     39  36  89 CALM      30.08S
ORD            CLEAR     40  37  89 CALM      30.06S
$$

NEZ041-046>049-061>064-073>077-083>087-050900-
SOUTH CENTRAL NEBRASKA

CITY           SKY/WX    TMP DP  RH WIND       PRES   REMARKS
GRAND ISLAND   PTCLDY    44  36  73 SW5       30.07S
AURORA         CLEAR     47  35  61 CALM      30.06S
HASTINGS       PTCLDY    48  37  65 W3        30.07S
KEARNEY *      CLEAR     46  39  76 SW3       30.08S
YORK           CLEAR     46  37  71 CALM      30.06F
$$

NEZ011>018-030>034-042>045-050900-
NORTHEAST NEBRASKA

CITY           SKY/WX    TMP DP  RH WIND       PRES   REMARKS
NORFOLK        CLEAR     44  36  73 CALM      30.04F
ALBION         CLEAR     40  37  87 NW3       30.06F
BLAIR          CLEAR     49  38  65 NW6       30.02F
COLUMBUS *     CLEAR     43  30  61 W3        30.06S
FREMONT        CLEAR     44  40  85 W5        30.04S
TEKAMAH        CLEAR     49  39  68 CALM      30.02F
$$

NEZ050>053-065>068-078-088>093-050900-
SOUTHEAST NEBRASKA

CITY           SKY/WX    TMP DP  RH WIND       PRES   REMARKS
LINCOLN        CLEAR     44  39  82 N3        30.05F
OMAHA EPPLEY   CLEAR     46  42  86 NW5       30.02S
BEATRICE       CLEAR     43  40  89 CALM      30.04F
FALLS CITY     CLEAR     44  39  82 NW6       30.01F
$$

NEZ044-045-051>053-067-050900-
OMAHA AREA

CITY           SKY/WX    TMP DP  RH WIND       PRES   REMARKS
OMAHA EPPLEY   CLEAR     46  42  86 NW5       30.02S
BLAIR          CLEAR     49  38  65 NW6       30.02F
FREMONT        CLEAR     44  40  85 W5        30.04S
OFFUTT AFB     CLEAR     48  42  81 W3        30.01S
$$



USA.gov is the U.S. government's official web portal to all federal, state and local government web resources and services.